Starlink 11442

operational
NORAD ID: 62885 Int'l Des: 2025-024 Owner: SPXS Country: US Constellation: starlink
LEOCIRCULAR

Starlink 11442について

説明を読み込み中...

リアルタイム位置

3D地球を読み込み中...

次回通過

高度履歴

Altitude vs Time

uPlot chart will show altitude changes over time

軌道要素

1 62885U 25024G 25305.52394473 .00226919 00000-0 17157-2 0 9996
2 62885 42.9995 233.6215 0001662 262.4791 97.5888 15.70956288 43314
Epoch: Nov 1, 2025 • Age: 16 hours

現在のステータス

高度 358.4 km
速度 7.70 km/s
衛星直下点 38.40°N, 114.5°W
打ち上げ日 Feb 4, 2025
運用期間 0.7 years
タイプ internet

技術仕様

分類 Payload
質量 960.00 kg
乾燥質量 910.00 kg
総質量 960.00 kg
長さ 0.30 m
直径 4.10 m
スパン 29.00 m
形状 Box + pan
製造者 SPXS
バスタイプ Starlink V2MD
フェーズステータス In Orbit
所有者/国 SPXS/US

大規模コンステレーション

Loading constellations...